Hourly Weather Rum

Today, 15 April, Thursday

Time Temperature Precipitation Wind Pressure Humidity
00:00 +4°C° 0.1 mm 4 mps 751 mmHg 90%
01:00 +4°C° 0.1 mm 4 mps 751 mmHg 90%
02:00 +4°C° 0.1 mm 4 mps 751 mmHg 90%
03:00 +3°C° 0 mm 4 mps 751 mmHg 88%
04:00 +3°C° 0 mm 4 mps 751 mmHg 87%
05:00 +3°C° 0 mm 4 mps 751 mmHg 85%
06:00 +3°C° 0 mm 4 mps 751 mmHg 83%
07:00 +3°C° 0 mm 4 mps 751 mmHg 81%
08:00 +3°C° 0 mm 4 mps 751 mmHg 79%
09:00 +3°C° 0 mm 5 mps 751 mmHg 81%
10:00 +3°C° 0 mm 5 mps 751 mmHg 83%
11:00 +3°C° 0 mm 5 mps 751 mmHg 85%
12:00 +3°C° 0.5 mm 5 mps 751 mmHg 87%
13:00 +2°C° 0.5 mm 5 mps 751 mmHg 88%
14:00 +2°C° 0.5 mm 5 mps 751 mmHg 90%
15:00 +2°C° 0.3 mm 5 mps 751 mmHg 90%
16:00 +3°C° 0.3 mm 5 mps 750 mmHg 90%
17:00 +3°C° 0.3 mm 5 mps 750 mmHg 91%
18:00 +3°C° 0.1 mm 5 mps 750 mmHg 91%
19:00 +3°C° 0.1 mm 5 mps 750 mmHg 91%
20:00 +3°C° 0.1 mm 5 mps 750 mmHg 92%
21:00 +3°C° 0.2 mm 5 mps 750 mmHg 92%
22:00 +3°C° 0.2 mm 5 mps 750 mmHg 92%
23:00 +5°C° 0.2 mm 5 mps 749 mmHg 93%

Tomorrow, 16 April, Friday

Time Temperature Precipitation Wind Pressure Humidity
00:00 +5°C° 0.3 mm 5 mps 749 mmHg 92%
01:00 +5°C° 0.3 mm 5 mps 749 mmHg 92%
02:00 +5°C° 0.3 mm 5 mps 749 mmHg 92%
03:00 +5°C° 0.2 mm 5 mps 749 mmHg 92%
04:00 +5°C° 0.2 mm 5 mps 749 mmHg 93%
05:00 +5°C° 0.2 mm 4 mps 749 mmHg 93%
06:00 +5°C° 0.6 mm 4 mps 749 mmHg 93%
07:00 +5°C° 0.6 mm 4 mps 750 mmHg 93%
08:00 +5°C° 0.6 mm 4 mps 750 mmHg 92%
09:00 +6°C° 0 mm 4 mps 750 mmHg 89%
10:00 +7°C° 0 mm 4 mps 750 mmHg 86%
11:00 +8°C° 0 mm 5 mps 751 mmHg 83%
12:00 +9°C° 0 mm 5 mps 751 mmHg 83%
13:00 +9°C° 0 mm 5 mps 751 mmHg 83%
14:00 +9°C° 0 mm 5 mps 751 mmHg 83%
15:00 +11°C° 0 mm 4 mps 751 mmHg 81%
16:00 +11°C° 0 mm 4 mps 751 mmHg 79%
17:00 +12°C° 0 mm 4 mps 751 mmHg 77%
18:00 +11°C° 0.1 mm 4 mps 751 mmHg 80%
19:00 +11°C° 0.1 mm 4 mps 752 mmHg 82%
20:00 +10°C° 0.1 mm 4 mps 752 mmHg 85%
21:00 +10°C° 0.4 mm 4 mps 752 mmHg 86%
22:00 +10°C° 0.4 mm 4 mps 752 mmHg 88%
23:00 +8°C° 0.4 mm 4 mps 752 mmHg 89%

Day after tomorrow, 17 April, Saturday

Time Temperature Precipitation Wind Pressure Humidity
00:00 +8°C° 0.2 mm 4 mps 752 mmHg 89%
01:00 +8°C° 0.2 mm 4 mps 752 mmHg 88%
02:00 +8°C° 0.2 mm 4 mps 752 mmHg 88%
03:00 +7°C° 0 mm 4 mps 752 mmHg 88%
04:00 +7°C° 0 mm 4 mps 753 mmHg 88%
05:00 +7°C° 0 mm 4 mps 753 mmHg 89%
06:00 +7°C° 0 mm 4 mps 753 mmHg 88%
07:00 +7°C° 0 mm 4 mps 754 mmHg 87%
08:00 +7°C° 0 mm 4 mps 754 mmHg 85%
09:00 +8°C° 0 mm 4 mps 754 mmHg 81%
10:00 +11°C° 0 mm 4 mps 754 mmHg 77%
11:00 +12°C° 0 mm 4 mps 754 mmHg 72%
12:00 +12°C° 0 mm 4 mps 754 mmHg 73%
13:00 +12°C° 0 mm 4 mps 755 mmHg 73%
14:00 +12°C° 0 mm 3 mps 755 mmHg 74%
15:00 +12°C° 0 mm 3 mps 755 mmHg 74%
16:00 +12°C° 0 mm 3 mps 755 mmHg 74%
17:00 +12°C° 0 mm 3 mps 755 mmHg 74%
18:00 +11°C° 0 mm 3 mps 755 mmHg 75%
19:00 +11°C° 0 mm 3 mps 755 mmHg 77%
20:00 +11°C° 0 mm 3 mps 755 mmHg 78%
21:00 +10°C° 0 mm 3 mps 755 mmHg 77%
22:00 +10°C° 0 mm 3 mps 755 mmHg 76%
23:00 +10°C° 0 mm 3 mps 755 mmHg 75%

18 April, Sunday

Time Temperature Precipitation Wind Pressure Humidity
00:00 +9°C° 0 mm 3 mps 756 mmHg 76%
01:00 +8°C° 0 mm 3 mps 756 mmHg 77%
02:00 +7°C° 0 mm 3 mps 756 mmHg 78%
03:00 +5°C° 0 mm 3 mps 756 mmHg 78%
04:00 +5°C° 0 mm 3 mps 756 mmHg 77%
05:00 +4°C° 0 mm 3 mps 756 mmHg 77%
06:00 +5°C° 0 mm 4 mps 756 mmHg 72%
07:00 +6°C° 0 mm 4 mps 756 mmHg 67%
08:00 +8°C° 0 mm 4 mps 756 mmHg 63%
09:00 +10°C° 0 mm 4 mps 756 mmHg 59%
10:00 +12°C° 0 mm 4 mps 756 mmHg 55%
11:00 +13°C° 0 mm 4 mps 756 mmHg 52%
12:00 +14°C° 0 mm 4 mps 756 mmHg 50%
13:00 +14°C° 0 mm 4 mps 756 mmHg 48%
14:00 +15°C° 0 mm 4 mps 756 mmHg 47%
15:00 +15°C° 0 mm 4 mps 756 mmHg 48%
16:00 +14°C° 0 mm 3 mps 756 mmHg 50%
17:00 +14°C° 0 mm 3 mps 756 mmHg 52%
18:00 +13°C° 0 mm 3 mps 756 mmHg 56%
19:00 +12°C° 0 mm 3 mps 756 mmHg 60%
20:00 +12°C° 0 mm 2 mps 756 mmHg 64%
21:00 +10°C° 0 mm 2 mps 756 mmHg 67%
22:00 +10°C° 0 mm 2 mps 756 mmHg 70%
23:00 +9°C° 0 mm 2 mps 756 mmHg 73%

19 April, Monday

Time Temperature Precipitation Wind Pressure Humidity
00:00 +9°C° 0.1 mm 2 mps 756 mmHg 75%
01:00 +8°C° 0.1 mm 2 mps 757 mmHg 77%
02:00 +8°C° 0.1 mm 2 mps 757 mmHg 79%
03:00 +8°C° 0 mm 2 mps 756 mmHg 78%
04:00 +7°C° 0 mm 3 mps 756 mmHg 78%
05:00 +7°C° 0 mm 3 mps 756 mmHg 77%
06:00 +8°C° 0 mm 3 mps 756 mmHg 72%
07:00 +9°C° 0 mm 3 mps 756 mmHg 66%
08:00 +10°C° 0 mm 4 mps 756 mmHg 61%
09:00 +11°C° 0 mm 4 mps 756 mmHg 56%
10:00 +13°C° 0 mm 5 mps 756 mmHg 51%
11:00 +14°C° 0 mm 5 mps 756 mmHg 46%
12:00 +14°C° 0 mm 5 mps 755 mmHg 46%
13:00 +14°C° 0 mm 5 mps 755 mmHg 45%
14:00 +15°C° 0 mm 5 mps 755 mmHg 44%
15:00 +14°C° 0 mm 5 mps 754 mmHg 46%
16:00 +14°C° 0 mm 4 mps 754 mmHg 48%
17:00 +14°C° 0 mm 4 mps 754 mmHg 49%
18:00 +13°C° 0 mm 4 mps 754 mmHg 53%
19:00 +12°C° 0 mm 4 mps 754 mmHg 56%
20:00 +10°C° 0 mm 4 mps 753 mmHg 60%
21:00 +10°C° 0 mm 4 mps 753 mmHg 62%
22:00 +10°C° 0 mm 4 mps 753 mmHg 65%
23:00 +8°C° 0 mm 4 mps 752 mmHg 67%

20 April, Tuesday

Time Temperature Precipitation Wind Pressure Humidity
00:00 +8°C° 0 mm 4 mps 752 mmHg 70%
01:00 +7°C° 0 mm 5 mps 752 mmHg 73%
02:00 +7°C° 0 mm 5 mps 751 mmHg 76%
03:00 +7°C° 0 mm 5 mps 751 mmHg 76%
04:00 +6°C° 0 mm 5 mps 751 mmHg 76%
05:00 +6°C° 0 mm 5 mps 750 mmHg 76%
06:00 +6°C° 0 mm 5 mps 750 mmHg 73%
07:00 +7°C° 0 mm 5 mps 749 mmHg 70%
08:00 +7°C° 0 mm 6 mps 749 mmHg 66%
09:00 +7°C° 0 mm 6 mps 748 mmHg 65%
10:00 +7°C° 0 mm 6 mps 748 mmHg 64%
11:00 +7°C° 0 mm 6 mps 747 mmHg 62%
12:00 +6°C° 0.3 mm 7 mps 746 mmHg 68%
13:00 +5°C° 0.3 mm 7 mps 746 mmHg 73%
14:00 +4°C° 0.3 mm 7 mps 745 mmHg 79%
15:00 +4°C° 0.6 mm 7 mps 745 mmHg 83%
16:00 +3°C° 0.6 mm 6 mps 744 mmHg 88%
17:00 +3°C° 0.6 mm 6 mps 744 mmHg 93%
18:00 +3°C° 0.3 mm 6 mps 743 mmHg 94%
19:00 +3°C° 0.3 mm 6 mps 743 mmHg 94%
20:00 +3°C° 0.3 mm 6 mps 742 mmHg 95%
21:00 +2°C° 0.2 mm 6 mps 742 mmHg 95%
22:00 +2°C° 0.2 mm 6 mps 741 mmHg 96%
23:00 +2°C° 0.2 mm 6 mps 741 mmHg 96%
Show more